Temp_Advection
nan nan nan nan nan nan nan nan nan nan nan nan nan nan nan nan nan nan nan nan nan nan
nan -0 -0 -0 -0 -0 -0 -0 0 0 1 1 1 -0 -0 -0 1 1 1 0 -0 nan
nan -0 -0 0 -0 -0 -0 -0 -0 0 1 1 -0 0 0 0 1 1 0 -1 1 nan
nan -0 -0 -0 0 -0 -0 0 0 -0 0 1 0 -0 0 0 0 0 -1 -0 -0 nan
nan -1 -0 -0 -0 -0 -0 0 0 0 0 -0 1 0 0 -0 0 0 -1 -1 -0 nan
nan -1 -0 -0 -0 0 -0 -0 0 0 -0 0 0 0 -0 -0 1 0 -1 -0 0 nan
nan -1 -1 -0 -0 -0 -0 -0 0 0 0 0 -0 0 0 1 1 0 0 -0 -0 nan
nan -1 -1 -1 -0 -0 -0 0 0 0 0 0 0 0 1 0 0 -0 -1 -1 0 nan
nan -1 -1 -1 -1 -0 -0 -0 0 0 0 0 0 0 0 0 0 -0 -1 0 0 nan
nan -1 -1 -1 -1 -1 -1 -0 0 0 0 0 0 0 1 1 0 -1 -0 0 0 nan
nan -1 -1 -1 -1 -1 -1 -0 -0 -0 -0 0 -0 0 1 0 -1 -1 0 1 0 nan
nan -1 -1 -1 -1 -1 -1 -0 -0 -0 -0 0 0 1 1 -0 -0 -0 0 1 0 nan
nan -1 -1 -1 -1 -1 -1 -1 -0 -0 0 0 0 0 -0 -0 -1 -1 0 0 0 nan
nan nan nan nan nan nan nan nan nan nan nan nan nan nan nan nan nan nan nan nan nan nan
Wind_Speed
16 16 20 24 24 23 23 21 20 20 23 32 41 47 48 51 51 53 50 59 58 56
12 16 18 19 23 23 23 22 23 23 23 24 42 45 48 54 53 56 54 61 60 55
6 14 16 17 20 22 25 26 28 27 28 29 31 45 50 56 55 59 57 56 60 56
9 8 12 17 16 17 19 23 29 31 30 33 38 37 49 52 60 58 57 54 57 53
13 11 9 9 15 17 23 19 25 30 28 31 37 42 46 52 54 49 50 52 54 51
19 16 12 11 10 19 13 20 24 24 27 30 38 40 44 54 50 46 48 48 50 49
22 21 16 13 11 14 14 20 19 21 27 31 35 38 43 44 44 42 46 40 36 39
24 23 20 16 13 12 17 23 27 20 23 30 34 34 36 36 33 35 34 31 32 33
25 25 24 20 16 14 10 12 9 20 23 31 33 35 35 31 27 30 30 29 29 30
25 26 25 24 19 15 12 10 12 15 25 33 33 33 35 35 30 28 27 29 31 33
24 25 24 23 20 16 13 11 9 8 11 25 26 37 36 37 29 29 29 30 29 29
23 23 24 23 22 17 13 10 8 6 9 19 24 28 40 43 35 29 38 31 29 26
23 22 22 22 23 18 16 10 10 8 6 11 13 22 39 46 36 29 35 30 30 27
21 20 20 22 21 18 16 12 8 9 5 5 8 14 32 44 44 32 36 39 36 32
Wind_Direction
257 260 253 249 248 252 251 248 250 249 239 231 230 233 231 228 225 218 219 223 225 223
268 261 267 255 252 253 250 255 255 262 253 242 235 232 231 226 224 220 216 223 224 225
313 265 264 260 250 251 254 253 254 263 265 258 243 233 233 224 223 222 219 219 222 222
355 322 273 264 260 254 252 255 255 250 265 254 251 249 235 225 221 222 215 217 221 221
352 345 322 280 259 256 267 263 262 250 257 250 252 241 241 224 216 216 220 219 221 222
357 347 339 331 296 257 281 262 276 248 259 262 249 246 236 229 217 217 217 218 218 222
350 349 341 334 314 261 255 256 260 258 270 255 252 246 244 224 219 217 217 216 219 226
339 341 343 335 324 307 243 256 259 263 272 259 249 246 221 209 205 211 212 211 216 223
330 333 338 339 330 315 301 278 292 265 256 255 245 226 206 207 205 209 211 211 215 219
327 326 331 337 334 325 311 289 289 279 264 250 239 220 210 215 212 214 207 212 219 219
323 322 325 329 331 333 318 297 288 289 275 254 238 230 218 211 218 210 212 211 216 221
319 318 322 324 329 329 318 309 297 279 250 251 240 236 204 210 219 220 215 212 210 215
313 311 315 319 321 318 321 311 294 281 256 248 243 216 203 213 234 220 222 211 213 210
305 304 307 310 315 313 311 301 296 280 270 233 224 216 212 225 234 221 213 215 206 204
Height
1438 1438 1439 1440 1443 1444 1446 1448 1451 1453 1454 1457 1462 1465 1468 1471 1474 1478 1479 1491 1499 1505
1434 1434 1434 1435 1437 1439 1440 1442 1443 1445 1448 1450 1453 1457 1458 1461 1465 1470 1468 1479 1490 1498
1430 1429 1429 1429 1430 1432 1434 1436 1437 1437 1439 1442 1445 1449 1452 1452 1456 1462 1465 1468 1479 1490
1427 1426 1424 1424 1424 1425 1427 1428 1428 1430 1431 1433 1436 1436 1440 1445 1446 1452 1456 1461 1470 1479
1425 1423 1421 1417 1417 1419 1418 1419 1419 1421 1422 1421 1425 1427 1430 1435 1436 1442 1449 1454 1463 1473
1423 1420 1417 1413 1412 1412 1412 1412 1412 1412 1413 1413 1415 1419 1422 1425 1430 1437 1443 1451 1458 1467
1421 1417 1413 1410 1408 1406 1406 1406 1406 1405 1405 1406 1408 1410 1414 1418 1424 1430 1436 1444 1452 1459
1418 1415 1411 1407 1404 1401 1400 1400 1398 1398 1398 1398 1400 1403 1407 1411 1417 1425 1431 1438 1445 1452
1414 1411 1406 1402 1398 1396 1394 1392 1392 1392 1392 1391 1393 1398 1404 1410 1414 1420 1425 1431 1438 1445
1411 1406 1402 1397 1394 1392 1390 1388 1388 1387 1386 1386 1389 1394 1400 1407 1413 1417 1420 1427 1437 1441
1408 1404 1400 1396 1392 1389 1387 1386 1383 1383 1384 1383 1385 1390 1395 1405 1409 1413 1420 1426 1432 1436
1405 1401 1397 1394 1390 1387 1385 1384 1382 1380 1381 1382 1383 1385 1390 1400 1404 1406 1414 1420 1425 1430
1401 1398 1396 1392 1388 1385 1384 1381 1380 1378 1378 1378 1380 1382 1390 1396 1401 1401 1407 1412 1418 1423
1397 1394 1392 1389 1387 1383 1381 1378 1376 1376 1376 1377 1378 1380 1387 1391 1394 1395 1399 1404 1409 1416